This demonstration page uses our WeatherBlox Daily Observations layout. Learn more.

Left ArrowRight Arrow

36.17497, -115.13722

Hourly Observations for October 16, 2021

Temp ( °F °C ) Dew Point ( °F °C ) Humidity (%) Winds ( mph kmh ) Pressure ( in mb ) Visibility ( mi km ) Precip ( " mm )
12:53 am 00:53 Clear 55 12.8 21 -6.1 26 26 N N/A 30.23 1024 10 16 N/A
1:53 am 01:53 Clear 56 13.3 22 -5.6 27 27 SW 5 7 30.22 1023 10 16 N/A
2:53 am 02:53 Clear 55 12.8 21 -6.1 26 26 N N/A 30.21 1023 10 16 N/A
3:53 am 03:53 Clear 53 11.7 22 -5.6 30 30 WNW 7 11 30.21 1023 10 16 N/A
4:53 am 04:53 Clear 55 12.8 19 -7.2 24 24 N N/A 30.20 1023 10 16 N/A
5:53 am 05:53 Clear 51 10.6 20 -6.7 29 29 WNW 5 7 30.21 1023 10 16 N/A
6:53 am 06:53 Sunny 52 11.1 20 -6.7 28 28 WNW 5 7 30.22 1024 10 16 N/A
7:53 am 07:53 Sunny 56 13.3 21 -6.1 26 26 WNW 7 11 30.23 1024 10 16 N/A
8:53 am 08:53 Sunny 63 17.2 23 -5 22 22 SW 3 6 30.24 1024 10 16 N/A
9:53 am 09:53 Sunny 66 18.9 21 -6.1 18 18 SE 3 6 30.23 1024 10 16 N/A
10:53 am 10:53 Sunny 69 20.6 20 -6.7 15 15 N N/A 30.21 1023 10 16 N/A
11:53 am 11:53 Sunny 72 22.2 19 -7.2 13 13 N N/A 30.19 1022 10 16 N/A
12:53 pm 12:53 Sunny 77 25 14 -10 9 9 ESE 14 22 30.15 1021 10 16 N/A
1:53 pm 13:53 Sunny 78 25.6 11 -11.7 8 8 E 9 15 30.11 1020 10 16 N/A
2:53 pm 14:53 Sunny 78 25.6 13 -10.6 8 8 ESE 12 19 30.08 1019 10 16 N/A
3:53 pm 15:53 Sunny 79 26.1 14 -10 8 8 VRB 5 7 30.07 1018 10 16 N/A
4:53 pm 16:53 Sunny 78 25.6 15 -9.4 9 9 ESE 6 9 30.06 1018 10 16 N/A
5:53 pm 17:53 Sunny 77 25 15 -9.4 9 9 N N/A 30.05 1018 10 16 N/A
6:53 pm 18:53 Clear 73 22.8 19 -7.2 13 13 WSW 5 7 30.06 1018 10 16 N/A
7:53 pm 19:53 Clear 69 20.6 22 -5.6 17 17 W 7 11 30.06 1018 10 16 N/A
8:53 pm 20:53 Clear 65 18.3 24 -4.4 21 21 NW 7 11 30.05 1018 10 16 N/A
9:53 pm 21:53 Clear 65 18.3 23 -5 20 20 W 7 11 30.05 1018 10 16 N/A
10:53 pm 22:53 Clear 63 17.2 23 -5 22 22 WNW 7 11 30.04 1017 10 16 N/A
11:53 pm 23:53 Clear 61 16.1 23 -5 23 23 WNW 3 6 30.04 1017 10 16 N/A

Powered by AerisWeather